When you browse on this site, cookies collect data to enhance your experience and personalize the content and advertising you see.
Visit our Privacy Policy to learn more. By continuing to use the site, you agree to this use of cookies and data.
  • In Denmark
  • List of Countries
  • For 7 days
  • Water Temperature
  • Satellite Maps
  • Weather Map
  • Weather Widgets
  • user-avatar
    Login

    Hourly Weather Beskaynar

    Today, 19 December, Wednesday

    Time Temperature Precipitation Wind Pressure Humidity
    00:00 -7°C° 0 mm 2 mps 634 mmHg 60%
    01:00 -7°C° 0 mm 2 mps 634 mmHg 59%
    02:00 -7°C° 0 mm 2 mps 634 mmHg 59%
    03:00 -7°C° 0 mm 2 mps 634 mmHg 62%
    04:00 -7°C° 0 mm 2 mps 634 mmHg 65%
    05:00 -7°C° 0 mm 2 mps 634 mmHg 69%
    06:00 -6°C° 0.1 mm 2 mps 634 mmHg 72%
    07:00 -6°C° 0.1 mm 2 mps 635 mmHg 76%
    08:00 -6°C° 0.1 mm 2 mps 635 mmHg 79%
    09:00 -5°C° 0.2 mm 2 mps 635 mmHg 79%
    10:00 -4°C° 0.2 mm 2 mps 635 mmHg 79%
    11:00 -4°C° 0.2 mm 2 mps 635 mmHg 79%
    12:00 -4°C° 0.2 mm 2 mps 635 mmHg 79%
    13:00 -4°C° 0.2 mm 2 mps 635 mmHg 80%
    14:00 -4°C° 0.2 mm 2 mps 635 mmHg 80%
    15:00 -4°C° 0.2 mm 2 mps 635 mmHg 82%
    16:00 -3°C° 0.2 mm 1 mps 635 mmHg 84%
    17:00 -3°C° 0.2 mm 1 mps 636 mmHg 86%
    18:00 -3°C° 0.2 mm 1 mps 636 mmHg 86%
    19:00 -3°C° 0.2 mm 1 mps 636 mmHg 87%
    20:00 -5°C° 0.2 mm 2 mps 636 mmHg 87%
    21:00 -3°C° 0.2 mm 1 mps 637 mmHg 87%
    22:00 -3°C° 0.2 mm 1 mps 637 mmHg 87%
    23:00 -3°C° 0.2 mm 1 mps 637 mmHg 87%

    Tomorrow, 20 December, Thursday

    Time Temperature Precipitation Wind Pressure Humidity
    00:00 -3°C° 0.3 mm 1 mps 637 mmHg 88%
    01:00 -4°C° 0.3 mm 1 mps 638 mmHg 88%
    02:00 -4°C° 0.3 mm 1 mps 638 mmHg 89%
    03:00 -4°C° 0.3 mm 1 mps 638 mmHg 89%
    04:00 -4°C° 0.3 mm 1 mps 638 mmHg 90%
    05:00 -4°C° 0.3 mm 1 mps 639 mmHg 91%
    06:00 -4°C° 0.4 mm 1 mps 639 mmHg 91%
    07:00 -4°C° 0.4 mm 1 mps 639 mmHg 91%
    08:00 -4°C° 0.4 mm 1 mps 640 mmHg 91%
    09:00 -4°C° 0.3 mm 1 mps 640 mmHg 91%
    10:00 -3°C° 0.3 mm 1 mps 640 mmHg 90%
    11:00 -5°C° 0.3 mm 2 mps 640 mmHg 89%
    12:00 -5°C° 0.3 mm 2 mps 640 mmHg 89%
    13:00 -5°C° 0.3 mm 2 mps 640 mmHg 90%
    14:00 -5°C° 0.3 mm 2 mps 640 mmHg 90%
    15:00 -6°C° 0.2 mm 2 mps 640 mmHg 91%
    16:00 -4°C° 0.2 mm 1 mps 640 mmHg 92%
    17:00 -6°C° 0.2 mm 1 mps 640 mmHg 93%
    18:00 -6°C° 0.2 mm 1 mps 641 mmHg 93%
    19:00 -6°C° 0.2 mm 1 mps 641 mmHg 93%
    20:00 -8°C° 0.2 mm 2 mps 641 mmHg 93%
    21:00 -8°C° 0.2 mm 2 mps 641 mmHg 92%
    22:00 -8°C° 0.2 mm 2 mps 641 mmHg 92%
    23:00 -8°C° 0.2 mm 2 mps 641 mmHg 91%

    Day after tomorrow, 21 December, Friday

    Time Temperature Precipitation Wind Pressure Humidity
    00:00 -8°C° 0.1 mm 2 mps 641 mmHg 91%
    01:00 -9°C° 0.1 mm 2 mps 641 mmHg 90%
    02:00 -9°C° 0.1 mm 2 mps 641 mmHg 90%
    03:00 -9°C° 0.1 mm 2 mps 641 mmHg 89%
    04:00 -9°C° 0.1 mm 2 mps 641 mmHg 88%
    05:00 -10°C° 0.1 mm 2 mps 641 mmHg 87%
    06:00 -10°C° 0.1 mm 2 mps 641 mmHg 86%
    07:00 -9°C° 0.1 mm 2 mps 641 mmHg 85%
    08:00 -10°C° 0.1 mm 3 mps 641 mmHg 84%
    09:00 -9°C° 0 mm 3 mps 641 mmHg 82%
    10:00 -7°C° 0 mm 2 mps 641 mmHg 80%
    11:00 -6°C° 0 mm 2 mps 640 mmHg 79%
    12:00 -7°C° 0 mm 3 mps 640 mmHg 78%
    13:00 -7°C° 0 mm 3 mps 639 mmHg 78%
    14:00 -6°C° 0 mm 3 mps 639 mmHg 77%
    15:00 -7°C° 0 mm 3 mps 639 mmHg 78%
    16:00 -8°C° 0 mm 3 mps 638 mmHg 79%
    17:00 -9°C° 0 mm 3 mps 638 mmHg 80%
    18:00 -10°C° 0 mm 4 mps 638 mmHg 78%
    19:00 -10°C° 0 mm 4 mps 638 mmHg 76%
    20:00 -10°C° 0 mm 4 mps 638 mmHg 75%
    21:00 -10°C° 0 mm 4 mps 637 mmHg 72%
    22:00 -10°C° 0 mm 4 mps 637 mmHg 70%
    23:00 -11°C° 0 mm 5 mps 637 mmHg 68%

    22 December, Saturday

    Time Temperature Precipitation Wind Pressure Humidity
    00:00 -11°C° 0 mm 5 mps 636 mmHg 65%
    01:00 -10°C° 0 mm 5 mps 636 mmHg 62%
    02:00 -9°C° 0 mm 4 mps 635 mmHg 60%
    03:00 -9°C° 0 mm 4 mps 635 mmHg 58%
    04:00 -9°C° 0 mm 4 mps 635 mmHg 56%
    05:00 -8°C° 0 mm 4 mps 634 mmHg 55%
    06:00 -8°C° 0 mm 4 mps 634 mmHg 55%
    07:00 -8°C° 0 mm 4 mps 634 mmHg 55%
    08:00 -7°C° 0 mm 3 mps 634 mmHg 55%
    09:00 -6°C° 0 mm 3 mps 634 mmHg 55%
    10:00 -4°C° 0 mm 3 mps 634 mmHg 56%
    11:00 -2°C° 0 mm 3 mps 635 mmHg 56%
    12:00 -2°C° 0 mm 3 mps 634 mmHg 59%
    13:00 -2°C° 0 mm 3 mps 634 mmHg 62%
    14:00 -2°C° 0 mm 2 mps 633 mmHg 65%
    15:00 -3°C° 0.1 mm 2 mps 633 mmHg 67%
    16:00 -3°C° 0.1 mm 2 mps 633 mmHg 69%
    17:00 -4°C° 0.1 mm 2 mps 633 mmHg 71%
    18:00 -4°C° 0.1 mm 2 mps 633 mmHg 71%
    19:00 -4°C° 0.1 mm 2 mps 634 mmHg 71%
    20:00 -4°C° 0.1 mm 2 mps 634 mmHg 71%
    21:00 -4°C° 0.1 mm 2 mps 634 mmHg 71%
    22:00 -4°C° 0.1 mm 2 mps 634 mmHg 71%
    23:00 -4°C° 0.1 mm 2 mps 634 mmHg 71%

    23 December, Sunday

    Time Temperature Precipitation Wind Pressure Humidity
    00:00 -4°C° 0.1 mm 2 mps 633 mmHg 71%
    01:00 -4°C° 0.1 mm 2 mps 633 mmHg 71%
    02:00 -4°C° 0.1 mm 2 mps 633 mmHg 71%
    03:00 -4°C° 0.1 mm 2 mps 633 mmHg 71%
    04:00 -4°C° 0.1 mm 2 mps 633 mmHg 71%
    05:00 -4°C° 0.1 mm 2 mps 633 mmHg 71%
    06:00 -4°C° 0.1 mm 2 mps 633 mmHg 71%
    07:00 -4°C° 0.1 mm 2 mps 633 mmHg 71%
    08:00 -4°C° 0.1 mm 2 mps 633 mmHg 72%
    09:00 -3°C° 0.1 mm 2 mps 633 mmHg 71%
    10:00 -2°C° 0.1 mm 2 mps 633 mmHg 70%
    11:00 -1°C° 0.1 mm 2 mps 633 mmHg 70%
    12:00 -1°C° 0.2 mm 2 mps 633 mmHg 71%
    13:00 +1°C° 0.2 mm 1 mps 633 mmHg 73%
    14:00 0°C° 0.2 mm 1 mps 633 mmHg 74%
    15:00 0°C° 0.2 mm 1 mps 633 mmHg 76%
    16:00 -1°C° 0.2 mm 1 mps 634 mmHg 78%
    17:00 -3°C° 0.2 mm 0 mps 634 mmHg 80%
    18:00 -2°C° 0.2 mm 1 mps 634 mmHg 82%
    19:00 -2°C° 0.2 mm 1 mps 635 mmHg 84%
    20:00 -2°C° 0.2 mm 1 mps 635 mmHg 86%
    21:00 -5°C° 0.3 mm 2 mps 635 mmHg 88%
    22:00 -5°C° 0.3 mm 2 mps 635 mmHg 90%
    23:00 -5°C° 0.3 mm 2 mps 635 mmHg 92%

    24 December, Monday

    Time Temperature Precipitation Wind Pressure Humidity
    00:00 -5°C° 0.2 mm 2 mps 636 mmHg 92%
    01:00 -6°C° 0.2 mm 2 mps 636 mmHg 93%
    02:00 -6°C° 0.2 mm 2 mps 636 mmHg 93%
    03:00 -6°C° 0.2 mm 2 mps 636 mmHg 93%
    04:00 -6°C° 0.2 mm 2 mps 636 mmHg 92%
    05:00 -6°C° 0.2 mm 2 mps 636 mmHg 92%
    06:00 -6°C° 0.2 mm 2 mps 636 mmHg 91%
    07:00 -7°C° 0.2 mm 2 mps 636 mmHg 90%
    08:00 -7°C° 0.2 mm 2 mps 636 mmHg 90%
    09:00 -6°C° 0.2 mm 2 mps 636 mmHg 88%
    10:00 -6°C° 0.2 mm 2 mps 636 mmHg 87%
    11:00 -5°C° 0.2 mm 2 mps 636 mmHg 85%
    12:00 -5°C° 0.2 mm 2 mps 636 mmHg 85%
    13:00 -5°C° 0.2 mm 2 mps 636 mmHg 85%
    14:00 -5°C° 0.2 mm 2 mps 636 mmHg 85%
    15:00 -6°C° 0.3 mm 2 mps 636 mmHg 86%
    16:00 -6°C° 0.3 mm 2 mps 636 mmHg 87%
    17:00 -7°C° 0.3 mm 2 mps 636 mmHg 89%
    18:00 -7°C° 0.3 mm 2 mps 636 mmHg 88%
    19:00 -7°C° 0.3 mm 2 mps 636 mmHg 88%
    20:00 -7°C° 0.3 mm 2 mps 637 mmHg 87%
    21:00 -7°C° 0.2 mm 2 mps 637 mmHg 87%
    22:00 -7°C° 0.2 mm 2 mps 637 mmHg 86%
    23:00 -7°C° 0.2 mm 2 mps 637 mmHg 86%
    Show more